When you browse on this site, cookies collect data to enhance your experience and personalize the content and advertising you see.
Visit our Privacy Policy to learn more. By continuing to use the site, you agree to this use of cookies and data.
  • In Deutschland
  • Länderverzeichnis
  • Für 7 Tage
  • Wassertemperatur
  • Satellitenkarten
  • Wetterkarte
  • Widgets
  • user-avatar
    Anmelden

    Stündliche Wetter Bad Wiessee

    Heute, 19 November, Montag

    Zeit Temperatur Niederschläge Wind Luftdruck Luftfeuchtigkeit
    00:00 -3°C° 0.1 mm 1 m/S 659 mmHg 89%
    01:00 -3°C° 0 mm 1 m/S 658 mmHg 90%
    02:00 -5°C° 0.2 mm 2 m/S 658 mmHg 90%
    03:00 -5°C° 0.2 mm 2 m/S 658 mmHg 90%
    04:00 -5°C° 0.2 mm 2 m/S 657 mmHg 90%
    05:00 -5°C° 0.2 mm 2 m/S 657 mmHg 90%
    06:00 -5°C° 0.2 mm 2 m/S 656 mmHg 90%
    07:00 -6°C° 0 mm 3 m/S 656 mmHg 90%
    08:00 -6°C° 0.1 mm 3 m/S 656 mmHg 86%
    09:00 -6°C° 0.1 mm 3 m/S 656 mmHg 83%
    10:00 -5°C° 0.1 mm 3 m/S 655 mmHg 79%
    11:00 -5°C° 0 mm 3 m/S 655 mmHg 75%
    12:00 -4°C° 0 mm 3 m/S 655 mmHg 72%
    13:00 -4°C° 0 mm 3 m/S 655 mmHg 69%
    14:00 -4°C° 0 mm 3 m/S 655 mmHg 71%
    15:00 -4°C° 0 mm 3 m/S 655 mmHg 73%
    16:00 -5°C° 0 mm 3 m/S 654 mmHg 76%
    17:00 -6°C° 0 mm 3 m/S 654 mmHg 79%
    18:00 -6°C° 0 mm 3 m/S 654 mmHg 81%
    19:00 -7°C° 0 mm 3 m/S 654 mmHg 84%
    20:00 -7°C° 0 mm 3 m/S 653 mmHg 82%
    21:00 -6°C° 0 mm 2 m/S 653 mmHg 81%
    22:00 -6°C° 0 mm 2 m/S 653 mmHg 80%
    23:00 -6°C° 0 mm 2 m/S 653 mmHg 78%

    Morgen, 20 November, Dienstag

    Zeit Temperatur Niederschläge Wind Luftdruck Luftfeuchtigkeit
    00:00 -6°C° 0 mm 2 m/S 653 mmHg 77%
    01:00 -6°C° 0 mm 2 m/S 652 mmHg 75%
    02:00 -5°C° 0 mm 2 m/S 652 mmHg 75%
    03:00 -5°C° 0 mm 2 m/S 652 mmHg 74%
    04:00 -5°C° 0 mm 2 m/S 652 mmHg 74%
    05:00 -4°C° 0 mm 2 m/S 652 mmHg 74%
    06:00 -4°C° 0 mm 2 m/S 652 mmHg 75%
    07:00 -2°C° 0 mm 1 m/S 651 mmHg 75%
    08:00 -1°C° 0 mm 1 m/S 652 mmHg 71%
    09:00 0°C° 0 mm 1 m/S 652 mmHg 68%
    10:00 +2°C° 0 mm 1 m/S 652 mmHg 64%
    11:00 +3°C° 0 mm 1 m/S 652 mmHg 62%
    12:00 +4°C° 0 mm 1 m/S 653 mmHg 61%
    13:00 +5°C° 0 mm 1 m/S 653 mmHg 59%
    14:00 +3°C° 0 mm 1 m/S 653 mmHg 67%
    15:00 +2°C° 0 mm 1 m/S 653 mmHg 75%
    16:00 0°C° 0 mm 1 m/S 653 mmHg 83%
    17:00 0°C° 0 mm 1 m/S 653 mmHg 85%
    18:00 -1°C° 0 mm 1 m/S 653 mmHg 88%
    19:00 -2°C° 0 mm 1 m/S 654 mmHg 91%
    20:00 -2°C° 0 mm 1 m/S 654 mmHg 90%
    21:00 -2°C° 0 mm 1 m/S 655 mmHg 89%
    22:00 -2°C° 0 mm 1 m/S 655 mmHg 88%
    23:00 -2°C° 0 mm 1 m/S 655 mmHg 87%

    übermorgen, 21 November, Mittwoch

    Zeit Temperatur Niederschläge Wind Luftdruck Luftfeuchtigkeit
    00:00 -2°C° 0 mm 1 m/S 655 mmHg 86%
    01:00 -2°C° 0 mm 1 m/S 655 mmHg 86%
    02:00 -2°C° 0 mm 1 m/S 655 mmHg 85%
    03:00 -2°C° 0 mm 1 m/S 656 mmHg 84%
    04:00 -2°C° 0 mm 1 m/S 656 mmHg 83%
    05:00 -2°C° 0 mm 1 m/S 656 mmHg 83%
    06:00 -4°C° 0 mm 2 m/S 656 mmHg 83%
    07:00 -4°C° 0 mm 2 m/S 656 mmHg 83%
    08:00 0°C° 0 mm 1 m/S 657 mmHg 77%
    09:00 +1°C° 0 mm 1 m/S 657 mmHg 71%
    10:00 +3°C° 0 mm 1 m/S 658 mmHg 66%
    11:00 +4°C° 0 mm 1 m/S 658 mmHg 65%
    12:00 +5°C° 0 mm 1 m/S 658 mmHg 64%
    13:00 +5°C° 0 mm 2 m/S 658 mmHg 63%
    14:00 +5°C° 0 mm 1 m/S 658 mmHg 71%
    15:00 +3°C° 0 mm 1 m/S 658 mmHg 80%
    16:00 +2°C° 0 mm 1 m/S 658 mmHg 88%
    17:00 +1°C° 0 mm 1 m/S 658 mmHg 89%
    18:00 0°C° 0 mm 1 m/S 658 mmHg 90%
    19:00 -1°C° 0 mm 1 m/S 658 mmHg 90%
    20:00 -1°C° 0 mm 1 m/S 659 mmHg 89%
    21:00 -1°C° 0 mm 1 m/S 659 mmHg 88%
    22:00 -1°C° 0 mm 1 m/S 659 mmHg 86%
    23:00 -1°C° 0 mm 1 m/S 659 mmHg 86%

    22 November, Donnerstag

    Zeit Temperatur Niederschläge Wind Luftdruck Luftfeuchtigkeit
    00:00 -1°C° 0 mm 1 m/S 660 mmHg 85%
    01:00 -1°C° 0 mm 1 m/S 660 mmHg 84%
    02:00 -1°C° 0 mm 1 m/S 660 mmHg 84%
    03:00 -1°C° 0 mm 1 m/S 660 mmHg 84%
    04:00 -2°C° 0 mm 1 m/S 660 mmHg 84%
    05:00 -2°C° 0 mm 1 m/S 660 mmHg 84%
    06:00 -2°C° 0 mm 1 m/S 660 mmHg 84%
    07:00 -2°C° 0 mm 1 m/S 660 mmHg 83%
    08:00 0°C° 0 mm 1 m/S 661 mmHg 78%
    09:00 +1°C° 0 mm 0 m/S 662 mmHg 72%
    10:00 +2°C° 0 mm 0 m/S 662 mmHg 67%
    11:00 +3°C° 0 mm 0 m/S 662 mmHg 65%
    12:00 +4°C° 0 mm 0 m/S 662 mmHg 64%
    13:00 +6°C° 0 mm 1 m/S 663 mmHg 62%
    14:00 +5°C° 0 mm 1 m/S 662 mmHg 69%
    15:00 +3°C° 0 mm 1 m/S 662 mmHg 77%
    16:00 +1°C° 0 mm 0 m/S 662 mmHg 84%
    17:00 +1°C° 0 mm 1 m/S 662 mmHg 86%
    18:00 +1°C° 0 mm 1 m/S 662 mmHg 87%
    19:00 0°C° 0 mm 1 m/S 663 mmHg 88%
    20:00 0°C° 0 mm 1 m/S 663 mmHg 88%
    21:00 0°C° 0 mm 1 m/S 663 mmHg 87%
    22:00 0°C° 0 mm 1 m/S 664 mmHg 86%
    23:00 0°C° 0 mm 1 m/S 664 mmHg 86%

    23 November, Freitag

    Zeit Temperatur Niederschläge Wind Luftdruck Luftfeuchtigkeit
    00:00 0°C° 0 mm 1 m/S 664 mmHg 86%
    01:00 0°C° 0 mm 1 m/S 664 mmHg 86%
    02:00 0°C° 0 mm 1 m/S 664 mmHg 85%
    03:00 0°C° 0 mm 1 m/S 664 mmHg 85%
    04:00 -1°C° 0 mm 1 m/S 664 mmHg 85%
    05:00 -1°C° 0 mm 1 m/S 664 mmHg 85%
    06:00 -1°C° 0 mm 1 m/S 664 mmHg 84%
    07:00 -1°C° 0 mm 1 m/S 665 mmHg 84%
    08:00 +1°C° 0 mm 1 m/S 665 mmHg 78%
    09:00 +3°C° 0 mm 1 m/S 665 mmHg 73%
    10:00 +4°C° 0 mm 1 m/S 666 mmHg 67%
    11:00 +5°C° 0 mm 1 m/S 666 mmHg 65%
    12:00 +6°C° 0 mm 1 m/S 666 mmHg 63%
    13:00 +7°C° 0 mm 1 m/S 665 mmHg 60%
    14:00 +6°C° 0 mm 1 m/S 665 mmHg 67%
    15:00 +5°C° 0 mm 1 m/S 665 mmHg 75%
    16:00 +3°C° 0 mm 1 m/S 664 mmHg 82%
    17:00 +2°C° 0 mm 1 m/S 664 mmHg 83%
    18:00 +2°C° 0 mm 1 m/S 664 mmHg 83%
    19:00 -1°C° 0 mm 2 m/S 664 mmHg 84%
    20:00 -1°C° 0 mm 2 m/S 663 mmHg 83%
    21:00 -1°C° 0 mm 2 m/S 663 mmHg 81%
    22:00 -1°C° 0 mm 2 m/S 663 mmHg 80%
    23:00 -1°C° 0 mm 2 m/S 662 mmHg 80%

    24 November, Samstag

    Zeit Temperatur Niederschläge Wind Luftdruck Luftfeuchtigkeit
    00:00 -1°C° 0 mm 2 m/S 662 mmHg 80%
    01:00 +1°C° 0 mm 1 m/S 661 mmHg 80%
    02:00 -1°C° 0 mm 2 m/S 661 mmHg 80%
    03:00 -1°C° 0 mm 2 m/S 660 mmHg 80%
    04:00 -1°C° 0 mm 2 m/S 660 mmHg 81%
    05:00 +1°C° 0 mm 2 m/S 660 mmHg 80%
    06:00 +1°C° 0 mm 2 m/S 659 mmHg 80%
    07:00 +2°C° 0 mm 2 m/S 659 mmHg 80%
    08:00 +2°C° 0 mm 2 m/S 659 mmHg 79%
    09:00 +3°C° 0 mm 2 m/S 659 mmHg 78%
    10:00 +4°C° 0 mm 2 m/S 658 mmHg 76%
    11:00 +5°C° 0 mm 2 m/S 658 mmHg 74%
    12:00 +6°C° 0 mm 2 m/S 658 mmHg 72%
    13:00 +7°C° 0 mm 2 m/S 658 mmHg 69%
    14:00 +5°C° 0.3 mm 3 m/S 658 mmHg 75%
    15:00 +4°C° 0.3 mm 3 m/S 658 mmHg 80%
    16:00 +3°C° 0.3 mm 4 m/S 658 mmHg 85%
    17:00 +2°C° 1.4 mm 3 m/S 658 mmHg 88%
    18:00 +2°C° 1.4 mm 3 m/S 658 mmHg 90%
    19:00 +2°C° 1.4 mm 2 m/S 659 mmHg 92%
    20:00 +2°C° 0.3 mm 2 m/S 659 mmHg 92%
    21:00 +2°C° 0.3 mm 2 m/S 659 mmHg 91%
    22:00 +2°C° 0.3 mm 2 m/S 659 mmHg 90%
    23:00 +2°C° 0.1 mm 2 m/S 659 mmHg 90%
    Mehr zeigen